Retour au catalogue

DELTA 1 DEB

ActifSSO
NORAD 26834·DEBRIS·🇺🇸 United States

Lancé Jun 12, 1975 depuis Vandenberg Space Force Base

Loading…

Prochains Passages (prochaines 24 heures)

TLE

FraisSource: Space-Track

Époque: Sep 14, 2026, 00:20 UTC

1 26834U 75052KN  26257.01409057 -.00000026  00000-0  31409-4 0  9990
2 26834  99.7111 277.8886 0056246 216.9884 173.4290 13.32963957240066

Suivez DELTA 1 DEB en temps réel avec AllMySat

Download on the App Store